Time,TemperatureF,DewpointF,PressureIn,WindDirection,WindDirectionDegrees,WindSpeedMPH,WindSpeedGustMPH,Humidity,HourlyPrecipIn,Conditions,Clouds,dailyrainin,SoftwareType,DateUTC
2013-05-09 00:00:00,63.5,56.5,30.01,West,272,0.0,3.0,78,0.00,CLR,,0.00,WeatherDisplay:10.37,2013-05-08 22:00:00,
2013-05-09 00:10:00,63.5,55.8,30.01,WSW,252,0.0,2.0,76,0.00,CLR,,0.00,WeatherDisplay:10.37,2013-05-08 22:10:00,
2013-05-09 00:20:00,63.4,55.7,30.01,SW,236,0.0,2.0,76,0.00,CLR,,0.00,WeatherDisplay:10.37,2013-05-08 22:20:00,
2013-05-09 00:30:00,63.6,57.3,30.01,SW,236,0.0,1.0,80,0.00,CLR,,0.00,WeatherDisplay:10.37,2013-05-08 22:30:00,
2013-05-09 00:40:00,63.7,57.4,30.01,SW,234,0.0,2.0,80,0.00,CLR,,0.00,WeatherDisplay:10.37,2013-05-08 22:40:00,
2013-05-09 00:50:00,63.7,57.4,30.01,WSW,242,0.0,3.0,80,0.00,CLR,,0.00,WeatherDisplay:10.37,2013-05-08 22:50:00,
2013-05-09 01:00:00,63.6,57.7,30.01,WSW,244,2.0,4.0,81,0.00,CLR,,0.00,WeatherDisplay:10.37,2013-05-08 23:00:00,
2013-05-09 01:10:00,63.4,57.8,30.00,WSW,249,2.0,4.0,82,0.00,CLR,,0.00,WeatherDisplay:10.37,2013-05-08 23:10:00,
2013-05-09 01:20:00,63.2,57.9,30.00,WSW,252,0.0,3.0,83,0.00,CLR,,0.00,WeatherDisplay:10.37,2013-05-08 23:20:00,
2013-05-09 01:30:00,63.5,58.6,30.00,WSW,253,0.0,4.0,84,0.00,CLR,,0.00,WeatherDisplay:10.37,2013-05-08 23:30:00,
2013-05-09 01:40:00,63.4,58.5,30.00,WSW,254,0.0,4.0,84,0.00,CLR,,0.00,WeatherDisplay:10.37,2013-05-08 23:40:00,
2013-05-09 01:50:00,63.4,58.1,29.99,WSW,254,0.0,3.0,83,0.00,CLR,,0.00,WeatherDisplay:10.37,2013-05-08 23:50:00,
2013-05-09 02:00:00,63.4,58.1,29.99,WSW,254,0.0,3.0,83,0.00,CLR,,0.00,WeatherDisplay:10.37,2013-05-09 00:00:00,
2013-05-09 02:10:00,63.6,58.7,29.99,NW,325,0.0,3.0,84,0.00,CLR,,0.00,WeatherDisplay:10.37,2013-05-09 00:10:00,
2013-05-09 02:20:00,63.6,59.0,29.98,WNW,294,0.0,4.0,85,0.00,CLR,,0.00,WeatherDisplay:10.37,2013-05-09 00:20:00,
2013-05-09 02:30:00,63.5,59.2,29.98,NW,319,2.0,4.0,86,0.00,CLR,,0.00,WeatherDisplay:10.37,2013-05-09 00:30:00,
2013-05-09 02:40:00,63.2,59.3,29.98,WNW,295,2.0,5.0,87,0.00,CLR,,0.00,WeatherDisplay:10.37,2013-05-09 00:40:00,
2013-05-09 02:50:00,63.1,59.2,29.97,NW,313,1.0,7.0,87,0.00,CLR,,0.00,WeatherDisplay:10.37,2013-05-09 00:50:00,
2013-05-09 03:00:00,62.9,59.3,29.97,WNW,294,1.0,7.0,88,0.00,CLR,,0.00,WeatherDisplay:10.37,2013-05-09 01:00:00,
2013-05-09 03:10:00,62.7,59.1,29.97,West,279,1.0,6.0,88,0.00,CLR,,0.00,WeatherDisplay:10.37,2013-05-09 01:10:00,
2013-05-09 03:20:00,62.7,58.8,29.97,West,272,0.0,4.0,87,0.00,CLR,,0.00,WeatherDisplay:10.37,2013-05-09 01:20:00,
2013-05-09 03:30:00,62.7,58.8,29.97,WNW,283,0.0,4.0,87,0.00,CLR,,0.00,WeatherDisplay:10.37,2013-05-09 01:30:00,
2013-05-09 03:40:00,62.8,58.9,29.96,NW,312,2.0,4.0,87,0.00,CLR,,0.00,WeatherDisplay:10.37,2013-05-09 01:40:00,
2013-05-09 03:50:00,62.7,58.8,29.96,West,274,2.0,4.0,87,0.00,CLR,,0.00,WeatherDisplay:10.37,2013-05-09 01:50:00,
2013-05-09 04:00:00,62.6,58.7,29.96,NW,311,1.0,3.0,87,0.00,CLR,,0.00,WeatherDisplay:10.37,2013-05-09 02:00:00,
2013-05-09 04:20:00,62.5,58.6,29.97,West,279,0.0,2.0,87,0.00,CLR,,0.00,WeatherDisplay:10.37,2013-05-09 02:20:00,
2013-05-09 04:30:00,62.5,58.6,29.97,NNW,330,1.0,5.0,87,0.00,CLR,,0.00,WeatherDisplay:10.37,2013-05-09 02:30:00,
2013-05-09 04:40:00,62.3,58.7,29.97,NW,307,1.0,4.0,88,0.00,CLR,,0.00,WeatherDisplay:10.37,2013-05-09 02:40:00,
2013-05-09 04:50:00,62.2,58.6,29.97,NNW,337,1.0,4.0,88,0.00,CLR,,0.00,WeatherDisplay:10.37,2013-05-09 02:50:00,
2013-05-09 05:00:00,61.9,58.3,29.97,NNW,332,0.0,3.0,88,0.00,CLR,,0.00,WeatherDisplay:10.37,2013-05-09 03:00:00,
2013-05-09 05:10:00,61.8,58.2,29.98,NNW,338,0.0,1.0,88,0.00,CLR,,0.00,WeatherDisplay:10.37,2013-05-09 03:10:00,
2013-05-09 05:20:00,61.7,58.1,29.97,NNW,338,0.0,4.0,88,0.00,CLR,,0.00,WeatherDisplay:10.37,2013-05-09 03:20:00,
2013-05-09 05:30:00,61.7,58.1,29.98,NNW,338,0.0,3.0,88,0.00,CLR,,0.00,WeatherDisplay:10.37,2013-05-09 03:30:00,
2013-05-09 05:40:00,61.6,58.0,29.97,NNW,334,0.0,4.0,88,0.00,CLR,,0.00,WeatherDisplay:10.37,2013-05-09 03:40:00,
2013-05-09 05:50:00,61.6,57.7,29.98,NNW,333,0.0,3.0,87,0.00,CLR,,0.00,WeatherDisplay:10.37,2013-05-09 03:50:00,
2013-05-09 06:00:00,61.6,57.4,29.98,NNW,333,1.0,2.0,86,0.00,CLR,,0.00,WeatherDisplay:10.37,2013-05-09 04:00:00,
2013-05-09 06:10:00,61.7,57.5,29.99,NNW,333,0.0,2.0,86,0.00,CLR,,0.00,WeatherDisplay:10.37,2013-05-09 04:10:00,
2013-05-09 06:20:00,62.0,57.4,29.99,NNW,333,0.0,2.0,85,0.00,CLR,,0.00,WeatherDisplay:10.37,2013-05-09 04:20:00,
2013-05-09 06:30:00,62.2,57.6,29.99,NNW,333,1.0,3.0,85,0.00,CLR,,0.00,WeatherDisplay:10.37,2013-05-09 04:30:00,
2013-05-09 06:40:00,62.4,57.8,29.99,NNW,333,0.0,2.0,85,0.00,CLR,,0.00,WeatherDisplay:10.37,2013-05-09 04:40:00,
2013-05-09 06:50:00,62.8,57.5,29.99,NNW,333,0.0,2.0,83,0.00,CLR,,0.00,WeatherDisplay:10.37,2013-05-09 04:50:00,
2013-05-09 07:00:00,63.3,57.3,29.99,NNW,333,0.0,1.0,81,0.00,CLR,,0.00,WeatherDisplay:10.37,2013-05-09 05:00:00,
2013-05-09 07:10:00,64.1,57.1,29.99,WNW,282,0.0,2.0,78,0.00,CLR,,0.00,WeatherDisplay:10.37,2013-05-09 05:10:00,
2013-05-09 07:20:00,64.6,57.2,29.99,WNW,282,0.0,1.0,77,0.00,CLR,,0.00,WeatherDisplay:10.37,2013-05-09 05:20:00,
2013-05-09 07:30:00,65.2,57.1,29.99,NNE,33,1.0,4.0,75,0.00,CLR,,0.00,WeatherDisplay:10.37,2013-05-09 05:30:00,
2013-05-09 07:40:00,65.9,57.0,29.99,North,356,1.0,4.0,73,0.00,CLR,,0.00,WeatherDisplay:10.37,2013-05-09 05:40:00,
2013-05-09 07:50:00,65.9,57.4,29.99,NNE,29,1.0,4.0,74,0.00,CLR,,0.00,WeatherDisplay:10.37,2013-05-09 05:50:00,
2013-05-09 08:00:00,65.9,57.8,29.99,NE,41,1.0,4.0,75,0.00,CLR,,0.00,WeatherDisplay:10.37,2013-05-09 06:00:00,
2013-05-09 08:10:00,66.7,58.1,30.00,ENE,58,1.0,3.0,74,0.00,CLR,,0.00,WeatherDisplay:10.37,2013-05-09 06:10:00,
2013-05-09 08:20:00,66.6,58.1,30.00,NE,40,1.0,4.0,74,0.00,CLR,,0.00,WeatherDisplay:10.37,2013-05-09 06:20:00,
2013-05-09 08:30:00,66.7,57.8,30.00,NNE,30,0.0,5.0,73,0.00,CLR,,0.00,WeatherDisplay:10.37,2013-05-09 06:30:00,
2013-05-09 08:40:00,67.9,58.1,30.00,NE,37,0.0,3.0,71,0.00,CLR,,0.00,WeatherDisplay:10.37,2013-05-09 06:40:00,
2013-05-09 08:50:00,68.7,56.5,30.00,East,88,0.0,3.0,65,0.00,CLR,,0.00,WeatherDisplay:10.37,2013-05-09 06:50:00,
2013-05-09 09:00:00,69.2,55.7,30.01,NNE,27,1.0,5.0,62,0.00,CLR,,0.00,WeatherDisplay:10.37,2013-05-09 07:00:00,
2013-05-09 09:10:00,69.2,54.7,30.01,NE,55,0.0,4.0,60,0.00,CLR,,0.00,WeatherDisplay:10.37,2013-05-09 07:10:00,
2013-05-09 09:20:00,69.4,53.1,30.01,ENE,57,0.0,3.0,56,0.00,CLR,,0.00,WeatherDisplay:10.37,2013-05-09 07:20:00,
2013-05-09 09:30:00,70.3,52.3,30.01,East,95,0.0,5.0,53,0.00,CLR,,0.00,WeatherDisplay:10.37,2013-05-09 07:30:00,
2013-05-09 09:40:00,70.8,51.8,30.01,NE,45,1.0,4.0,51,0.00,CLR,,0.00,WeatherDisplay:10.37,2013-05-09 07:40:00,
2013-05-09 09:50:00,70.8,51.2,30.01,NE,45,0.0,5.0,50,0.00,CLR,,0.00,WeatherDisplay:10.37,2013-05-09 07:50:00,
2013-05-09 10:00:00,70.6,50.0,30.01,NE,35,3.0,6.0,48,0.00,CLR,,0.00,WeatherDisplay:10.37,2013-05-09 08:00:00,
2013-05-09 10:10:00,70.6,50.5,30.01,NE,40,1.0,9.0,49,0.00,CLR,,0.00,WeatherDisplay:10.37,2013-05-09 08:10:00,
2013-05-09 10:20:00,71.7,50.4,30.01,NNE,32,1.0,5.0,47,0.00,CLR,,0.00,WeatherDisplay:10.37,2013-05-09 08:20:00,
2013-05-09 10:30:00,72.5,50.5,30.02,North,0,1.0,7.0,46,0.00,CLR,,0.00,WeatherDisplay:10.37,2013-05-09 08:30:00,
2013-05-09 10:40:00,72.2,50.2,30.02,North,5,0.0,5.0,46,0.00,CLR,,0.00,WeatherDisplay:10.37,2013-05-09 08:40:00,
2013-05-09 10:50:00,73.0,50.4,30.02,NE,41,1.0,3.0,45,0.00,CLR,,0.00,WeatherDisplay:10.37,2013-05-09 08:50:00,
2013-05-09 11:00:00,73.3,50.1,30.02,ENE,66,0.0,3.0,44,0.00,CLR,,0.00,WeatherDisplay:10.37,2013-05-09 09:00:00,
2013-05-09 11:10:00,73.1,50.5,30.02,West,267,0.0,4.0,45,0.00,CLR,,0.00,WeatherDisplay:10.37,2013-05-09 09:10:00,
2013-05-09 11:20:00,72.9,55.8,30.01,WSW,243,3.0,7.0,55,0.00,CLR,,0.00,WeatherDisplay:10.37,2013-05-09 09:20:00,
2013-05-09 11:30:00,71.6,56.5,30.01,SSW,209,0.0,3.0,59,0.00,CLR,,0.00,WeatherDisplay:10.37,2013-05-09 09:30:00,
2013-05-09 11:40:00,72.5,54.4,30.01,West,276,1.0,4.0,53,0.00,CLR,,0.00,WeatherDisplay:10.37,2013-05-09 09:40:00,
2013-05-09 11:50:00,73.1,55.9,30.01,SSW,194,2.0,6.0,55,0.00,CLR,,0.00,WeatherDisplay:10.37,2013-05-09 09:50:00,
2013-05-09 12:00:00,73.7,56.5,30.01,SSE,150,1.0,4.0,55,0.00,CLR,,0.00,WeatherDisplay:10.37,2013-05-09 10:00:00,
2013-05-09 12:10:00,73.8,57.6,30.01,SE,140,1.0,4.0,57,0.00,CLR,,0.00,WeatherDisplay:10.37,2013-05-09 10:10:00,
2013-05-09 12:20:00,73.7,56.5,30.01,South,188,2.0,6.0,55,0.00,CLR,,0.00,WeatherDisplay:10.37,2013-05-09 10:20:00,
2013-05-09 12:30:00,73.0,55.8,30.01,SSW,194,0.0,8.0,55,0.00,CLR,,0.00,WeatherDisplay:10.37,2013-05-09 10:30:00,
2013-05-09 12:40:00,72.9,56.3,30.01,South,177,2.0,6.0,56,0.00,CLR,,0.00,WeatherDisplay:10.37,2013-05-09 10:40:00,
2013-05-09 12:50:00,73.1,57.5,30.00,SW,231,1.0,9.0,58,0.00,CLR,,0.00,WeatherDisplay:10.37,2013-05-09 10:50:00,
2013-05-09 13:00:00,73.0,57.8,30.00,South,187,1.0,9.0,59,0.00,CLR,,0.00,WeatherDisplay:10.37,2013-05-09 11:00:00,
2013-05-09 13:10:00,72.9,58.7,30.01,South,180,2.0,7.0,61,0.00,CLR,,0.00,WeatherDisplay:10.37,2013-05-09 11:10:00,
2013-05-09 13:20:00,72.4,58.2,30.01,South,183,2.0,7.0,61,0.00,CLR,,0.00,WeatherDisplay:10.37,2013-05-09 11:20:00,
2013-05-09 13:30:00,72.3,59.0,30.01,SSW,201,3.0,7.0,63,0.00,CLR,,0.00,WeatherDisplay:10.37,2013-05-09 11:30:00,
2013-05-09 13:40:00,73.1,59.3,30.01,SSW,206,3.0,8.0,62,0.00,CLR,,0.00,WeatherDisplay:10.37,2013-05-09 11:40:00,
2013-05-09 13:50:00,73.0,58.8,30.00,South,181,2.0,10.0,61,0.00,CLR,,0.00,WeatherDisplay:10.37,2013-05-09 11:50:00,
2013-05-09 14:00:00,73.1,57.9,30.00,South,170,3.0,7.0,59,0.00,CLR,,0.00,WeatherDisplay:10.37,2013-05-09 12:00:00,
2013-05-09 14:10:00,73.0,57.4,30.00,SSW,198,3.0,9.0,58,0.00,CLR,,0.00,WeatherDisplay:10.37,2013-05-09 12:10:00,
2013-05-09 14:20:00,73.7,57.5,29.99,SSW,203,5.0,9.0,57,0.00,CLR,,0.00,WeatherDisplay:10.37,2013-05-09 12:20:00,
2013-05-09 14:30:00,73.5,57.3,29.99,SW,233,7.0,10.0,57,0.00,CLR,,0.00,WeatherDisplay:10.37,2013-05-09 12:30:00,
2013-05-09 14:40:00,74.2,57.5,29.99,SW,236,2.0,8.0,56,0.00,CLR,,0.00,WeatherDisplay:10.37,2013-05-09 12:40:00,
2013-05-09 14:50:00,74.2,56.5,29.99,WSW,250,6.0,8.0,54,0.00,CLR,,0.00,WeatherDisplay:10.37,2013-05-09 12:50:00,
2013-05-09 15:00:00,74.2,57.0,29.99,SW,236,2.0,9.0,55,0.00,CLR,,0.00,WeatherDisplay:10.37,2013-05-09 13:00:00,
2013-05-09 15:10:00,74.7,57.5,29.99,SSW,202,3.0,8.0,55,0.00,CLR,,0.00,WeatherDisplay:10.37,2013-05-09 13:10:00,
2013-05-09 15:20:00,74.7,57.5,29.99,SW,224,6.0,13.0,55,0.00,CLR,,0.00,WeatherDisplay:10.37,2013-05-09 13:20:00,
2013-05-09 15:30:00,73.8,57.6,29.99,SW,236,6.0,12.0,57,0.00,CLR,,0.00,WeatherDisplay:10.37,2013-05-09 13:30:00,
2013-05-09 15:40:00,73.3,56.1,29.99,WSW,253,7.0,12.0,55,0.00,CLR,,0.00,WeatherDisplay:10.37,2013-05-09 13:40:00,
2013-05-09 15:50:00,72.8,57.2,29.99,West,267,3.0,12.0,58,0.00,CLR,,0.00,WeatherDisplay:10.37,2013-05-09 13:50:00,
2013-05-09 16:00:00,73.8,58.1,29.99,WSW,239,3.0,12.0,58,0.00,CLR,,0.00,WeatherDisplay:10.37,2013-05-09 14:00:00,
2013-05-09 16:10:00,74.1,57.9,29.98,SSW,197,5.0,9.0,57,0.00,CLR,,0.00,WeatherDisplay:10.37,2013-05-09 14:10:00,
2013-05-09 16:20:00,74.5,57.8,29.98,WSW,239,3.0,8.0,56,0.00,CLR,,0.00,WeatherDisplay:10.37,2013-05-09 14:20:00,
2013-05-09 16:30:00,74.3,58.1,29.98,SW,229,1.0,7.0,57,0.00,CLR,,0.00,WeatherDisplay:10.37,2013-05-09 14:30:00,
2013-05-09 16:40:00,74.7,58.0,29.98,SW,233,2.0,8.0,56,0.00,CLR,,0.00,WeatherDisplay:10.37,2013-05-09 14:40:00,
2013-05-09 16:50:00,74.7,58.0,29.98,SW,217,1.0,9.0,56,0.00,CLR,,0.00,WeatherDisplay:10.37,2013-05-09 14:50:00,
2013-05-09 17:00:00,75.4,56.5,29.98,WSW,242,1.0,5.0,52,0.00,CLR,,0.00,WeatherDisplay:10.37,2013-05-09 15:00:00,
2013-05-09 17:10:00,74.6,56.3,29.98,SSW,212,2.0,6.0,53,0.00,CLR,,0.00,WeatherDisplay:10.37,2013-05-09 15:10:00,
2013-05-09 17:20:00,74.9,57.1,29.98,South,182,2.0,6.0,54,0.00,CLR,,0.00,WeatherDisplay:10.37,2013-05-09 15:20:00,
2013-05-09 17:30:00,74.0,56.3,29.98,WSW,245,2.0,8.0,54,0.00,CLR,,0.00,WeatherDisplay:10.37,2013-05-09 15:30:00,
2013-05-09 17:40:00,74.0,56.3,29.98,South,191,2.0,7.0,54,0.00,CLR,,0.00,WeatherDisplay:10.37,2013-05-09 15:40:00,
2013-05-09 17:50:00,73.7,55.5,29.98,SW,221,5.0,10.0,53,0.00,CLR,,0.00,WeatherDisplay:10.37,2013-05-09 15:50:00,
2013-05-09 18:00:00,73.4,55.2,29.98,SW,222,1.0,8.0,53,0.00,CLR,,0.00,WeatherDisplay:10.37,2013-05-09 16:00:00,
2013-05-09 18:10:00,72.1,56.1,29.98,WSW,248,5.0,9.0,57,0.00,CLR,,0.00,WeatherDisplay:10.37,2013-05-09 16:10:00,
2013-05-09 18:20:00,71.9,56.8,29.98,WSW,247,2.0,8.0,59,0.00,CLR,,0.00,WeatherDisplay:10.37,2013-05-09 16:20:00,
2013-05-09 18:30:00,71.3,56.2,29.98,SSW,211,3.0,9.0,59,0.00,CLR,,0.00,WeatherDisplay:10.37,2013-05-09 16:30:00,
2013-05-09 18:40:00,71.0,56.4,29.98,SW,231,2.0,9.0,60,0.00,CLR,,0.00,WeatherDisplay:10.37,2013-05-09 16:40:00,
2013-05-09 18:50:00,71.1,57.4,29.98,SW,219,2.0,8.0,62,0.00,CLR,,0.00,WeatherDisplay:10.37,2013-05-09 16:50:00,
2013-05-09 19:00:00,70.6,57.8,29.99,SW,215,3.0,8.0,64,0.00,CLR,,0.00,WeatherDisplay:10.37,2013-05-09 17:00:00,
2013-05-09 19:10:00,70.8,56.7,29.99,SSW,202,1.0,6.0,61,0.00,CLR,,0.00,WeatherDisplay:10.37,2013-05-09 17:10:00,
2013-05-09 19:20:00,70.6,56.5,29.99,South,181,1.0,5.0,61,0.00,CLR,,0.00,WeatherDisplay:10.37,2013-05-09 17:20:00,
2013-05-09 19:30:00,69.7,56.1,29.99,SSW,192,0.0,7.0,62,0.00,CLR,,0.00,WeatherDisplay:10.37,2013-05-09 17:30:00,
2013-05-09 19:40:00,69.4,55.8,30.00,SSW,199,1.0,5.0,62,0.00,CLR,,0.00,WeatherDisplay:10.37,2013-05-09 17:40:00,
2013-05-09 19:50:00,69.2,55.2,30.00,SW,216,0.0,5.0,61,0.00,CLR,,0.00,WeatherDisplay:10.37,2013-05-09 17:50:00,
2013-05-09 20:00:00,68.8,55.2,30.00,South,179,0.0,5.0,62,0.00,CLR,,0.00,WeatherDisplay:10.37,2013-05-09 18:00:00,
2013-05-09 20:10:00,68.7,54.3,30.00,SSE,163,0.0,3.0,60,0.00,CLR,,0.00,WeatherDisplay:10.37,2013-05-09 18:10:00,
2013-05-09 20:20:00,68.6,54.2,30.00,WSW,242,2.0,3.0,60,0.00,CLR,,0.00,WeatherDisplay:10.37,2013-05-09 18:20:00,
2013-05-09 20:30:00,68.5,54.5,30.00,West,261,0.0,4.0,61,0.00,CLR,,0.00,WeatherDisplay:10.37,2013-05-09 18:30:00,
2013-05-09 20:40:00,68.4,54.0,30.00,WNW,300,0.0,4.0,60,0.00,CLR,,0.00,WeatherDisplay:10.37,2013-05-09 18:40:00,
2013-05-09 20:50:00,68.5,54.1,30.00,WNW,300,0.0,0.0,60,0.00,CLR,,0.00,WeatherDisplay:10.37,2013-05-09 18:50:00,
2013-05-09 21:00:00,68.5,53.6,30.00,WNW,300,0.0,0.0,59,0.00,CLR,,0.00,WeatherDisplay:10.37,2013-05-09 19:00:00,
2013-05-09 21:10:00,68.7,54.2,30.00,WNW,300,0.0,0.0,60,0.00,CLR,,0.00,WeatherDisplay:10.37,2013-05-09 19:10:00,
2013-05-09 21:20:00,68.7,54.7,30.00,WNW,300,0.0,0.0,61,0.00,CLR,,0.00,WeatherDisplay:10.37,2013-05-09 19:20:00,
2013-05-09 21:30:00,68.7,54.2,30.01,WNW,300,0.0,0.0,60,0.00,CLR,,0.00,WeatherDisplay:10.37,2013-05-09 19:30:00,
2013-05-09 21:40:00,68.5,55.4,30.01,WNW,300,0.0,1.0,63,0.00,CLR,,0.00,WeatherDisplay:10.37,2013-05-09 19:40:00,
2013-05-09 21:50:00,68.4,55.7,30.01,NW,321,0.0,1.0,64,0.00,CLR,,0.00,WeatherDisplay:10.37,2013-05-09 19:50:00,
2013-05-09 22:00:00,68.2,55.6,30.01,NNW,342,0.0,1.0,64,0.00,CLR,,0.00,WeatherDisplay:10.37,2013-05-09 20:00:00,
2013-05-09 22:10:00,67.9,56.1,30.01,NNW,343,0.0,0.0,66,0.00,CLR,,0.00,WeatherDisplay:10.37,2013-05-09 20:10:00,
2013-05-09 22:20:00,67.8,56.4,30.01,NNW,343,0.0,1.0,67,0.00,CLR,,0.00,WeatherDisplay:10.37,2013-05-09 20:20:00,
2013-05-09 22:30:00,67.7,57.2,30.01,NNW,343,0.0,1.0,69,0.00,CLR,,0.00,WeatherDisplay:10.37,2013-05-09 20:30:00,
2013-05-09 22:40:00,67.6,57.5,30.01,NNW,343,0.0,1.0,70,0.00,CLR,,0.00,WeatherDisplay:10.37,2013-05-09 20:40:00,
2013-05-09 22:50:00,67.3,56.4,30.02,NNW,343,0.0,1.0,68,0.00,CLR,,0.00,WeatherDisplay:10.37,2013-05-09 20:50:00,
2013-05-09 23:00:00,67.1,56.6,30.02,NNW,343,0.0,1.0,69,0.00,CLR,,0.00,WeatherDisplay:10.37,2013-05-09 21:00:00,
2013-05-09 23:10:00,66.9,56.0,30.02,NNW,343,0.0,1.0,68,0.00,CLR,,0.00,WeatherDisplay:10.37,2013-05-09 21:10:00,
2013-05-09 23:20:00,66.9,57.6,30.02,NNW,343,0.0,1.0,72,0.00,CLR,,0.00,WeatherDisplay:10.37,2013-05-09 21:20:00,
2013-05-09 23:30:00,66.7,57.4,30.02,NNW,343,0.0,0.0,72,0.00,CLR,,0.00,WeatherDisplay:10.37,2013-05-09 21:30:00,
2013-05-09 23:40:00,66.4,56.7,30.02,NNW,343,0.0,1.0,71,0.00,CLR,,0.00,WeatherDisplay:10.37,2013-05-09 21:40:00,
2013-05-09 23:50:00,66.0,57.1,30.02,NNW,343,0.0,2.0,73,0.00,CLR,,0.00,WeatherDisplay:10.37,2013-05-09 21:50:00,